Main page
Satellite images Climate Cyclones Lightning AirportsFAQ Languages Contact Newsletter About
Weather : Europe Africa North America South America Asia Australia-Oceania Others

ubon-ratchathani-th, Ubon Ratchathani, Ubon Ratchathani Airport

48407

latitude: , longitude: Thailand, elevation: 15-15N m


METAR: VTUU 180200Z 22008KT 8000 BKN020 OVC080 26/25 Q1002 NOSIG